Time,TemperatureF,DewpointF,PressureIn,WindDirection,WindDirectionDegrees,WindSpeedMPH,WindSpeedGustMPH,Humidity,HourlyPrecipIn,Conditions,Clouds,dailyrainin,SoftwareType,DateUTC
2013-03-22 00:00:00,20.5,14.7,30.11,WSW,246,0.0,0.0,78,0.00,,,0.00,Wunderground v.1.15,2013-03-22 04:00:00,
2013-03-22 00:01:00,20.5,14.7,30.11,WSW,245,0.0,0.0,78,0.00,,,0.00,Wunderground v.1.15,2013-03-22 04:01:00,
2013-03-22 00:03:00,20.4,14.6,30.11,WSW,246,0.0,0.0,78,0.00,,,0.00,Wunderground v.1.15,2013-03-22 04:03:00,
2013-03-22 00:05:00,20.3,14.5,30.11,WSW,246,0.0,0.0,78,0.00,,,0.00,Wunderground v.1.15,2013-03-22 04:05:00,
2013-03-22 00:11:00,20.1,14.6,30.11,WSW,246,0.0,0.0,79,0.00,,,0.00,Wunderground v.1.15,2013-03-22 04:11:00,
2013-03-22 00:17:00,19.8,14.3,30.11,WSW,246,0.0,0.0,79,0.00,,,0.00,Wunderground v.1.15,2013-03-22 04:17:00,
2013-03-22 00:23:00,19.7,14.2,30.11,WSW,246,0.0,0.0,79,0.00,,,0.00,Wunderground v.1.15,2013-03-22 04:23:00,
2013-03-22 00:29:00,19.8,14.6,30.11,WSW,246,0.0,0.0,80,0.00,,,0.00,Wunderground v.1.15,2013-03-22 04:29:00,
2013-03-22 00:35:00,20.4,14.6,30.10,WSW,246,0.0,0.0,78,0.00,,,0.00,Wunderground v.1.15,2013-03-22 04:35:00,
2013-03-22 00:40:00,20.6,14.5,30.10,WSW,246,0.0,0.0,77,0.00,,,0.00,Wunderground v.1.15,2013-03-22 04:40:00,
2013-03-22 00:46:00,20.4,14.0,30.10,WSW,246,0.0,0.0,76,0.00,,,0.00,Wunderground v.1.15,2013-03-22 04:46:00,
2013-03-22 00:52:00,20.0,13.9,30.10,SSW,200,0.0,0.0,77,0.00,,,0.00,Wunderground v.1.15,2013-03-22 04:52:00,
2013-03-22 00:57:00,20.2,14.4,30.10,SSW,198,0.0,0.0,78,0.00,,,0.00,Wunderground v.1.15,2013-03-22 04:57:00,
2013-03-22 01:03:00,20.6,14.5,30.10,SSW,198,0.0,0.0,77,0.00,,,0.00,Wunderground v.1.15,2013-03-22 05:03:00,
2013-03-22 01:08:00,20.8,14.4,30.10,SSW,198,0.0,0.0,76,0.00,,,0.00,Wunderground v.1.15,2013-03-22 05:08:00,
2013-03-22 01:14:00,20.4,13.7,30.10,SSW,198,0.0,0.0,75,0.00,,,0.00,Wunderground v.1.15,2013-03-22 05:14:00,
2013-03-22 01:20:00,20.1,14.0,30.10,SSW,198,0.0,0.0,77,0.00,,,0.00,Wunderground v.1.15,2013-03-22 05:20:00,
2013-03-22 01:26:00,19.8,14.0,30.10,SSW,198,0.0,0.0,78,0.00,,,0.00,Wunderground v.1.15,2013-03-22 05:26:00,
2013-03-22 01:32:00,19.8,14.3,30.10,SSW,198,0.0,0.0,79,0.00,,,0.00,Wunderground v.1.15,2013-03-22 05:32:00,
2013-03-22 01:38:00,19.8,14.0,30.09,SSW,198,0.0,0.0,78,0.00,,,0.00,Wunderground v.1.15,2013-03-22 05:38:00,
2013-03-22 01:44:00,19.8,14.3,30.09,SSW,198,0.0,0.0,79,0.00,,,0.00,Wunderground v.1.15,2013-03-22 05:44:00,
2013-03-22 01:49:00,20.0,14.2,30.09,SSW,198,0.0,0.0,78,0.00,,,0.00,Wunderground v.1.15,2013-03-22 05:49:00,
2013-03-22 01:55:00,19.9,14.1,30.09,SSW,198,0.0,0.0,78,0.00,,,0.00,Wunderground v.1.15,2013-03-22 05:55:00,
2013-03-22 02:00:00,19.7,14.2,30.09,SSW,198,0.0,0.0,79,0.00,,,0.00,Wunderground v.1.15,2013-03-22 06:00:00,
2013-03-22 02:06:00,19.5,14.3,30.09,SSW,198,0.0,0.0,80,0.00,,,0.00,Wunderground v.1.15,2013-03-22 06:06:00,
2013-03-22 02:11:00,19.3,14.1,30.09,SSW,198,0.0,0.0,80,0.00,,,0.00,Wunderground v.1.15,2013-03-22 06:11:00,
2013-03-22 02:16:00,19.3,14.1,30.09,SSW,198,0.0,0.0,80,0.00,,,0.00,Wunderground v.1.15,2013-03-22 06:16:00,
2013-03-22 02:22:00,19.2,14.0,30.09,SSW,198,0.0,0.0,80,0.00,,,0.00,Wunderground v.1.15,2013-03-22 06:22:00,
2013-03-22 02:28:00,19.3,14.1,30.09,SSW,198,0.0,0.0,80,0.00,,,0.00,Wunderground v.1.15,2013-03-22 06:28:00,
2013-03-22 02:34:00,19.3,14.1,30.09,SSW,198,0.0,0.0,80,0.00,,,0.00,Wunderground v.1.15,2013-03-22 06:34:00,
2013-03-22 02:39:00,19.3,14.1,30.09,SSW,212,0.0,0.0,80,0.00,,,0.00,Wunderground v.1.15,2013-03-22 06:39:00,
2013-03-22 02:45:00,19.1,13.7,30.09,SSW,212,0.0,0.0,79,0.00,,,0.00,Wunderground v.1.15,2013-03-22 06:45:00,
2013-03-22 02:51:00,19.1,13.9,30.09,South,184,0.0,0.0,80,0.00,,,0.00,Wunderground v.1.15,2013-03-22 06:51:00,
2013-03-22 02:57:00,19.8,14.3,30.09,SSW,211,0.0,0.0,79,0.00,,,0.00,Wunderground v.1.15,2013-03-22 06:57:00,
2013-03-22 03:02:00,20.0,14.2,30.09,SSW,211,0.0,0.0,78,0.00,,,0.00,Wunderground v.1.15,2013-03-22 07:02:00,
2013-03-22 03:07:00,19.9,14.4,30.09,SSW,211,0.0,0.0,79,0.00,,,0.00,Wunderground v.1.15,2013-03-22 07:07:00,
2013-03-22 03:13:00,19.6,14.1,30.09,SSW,211,0.0,0.0,79,0.00,,,0.00,Wunderground v.1.15,2013-03-22 07:13:00,
2013-03-22 03:19:00,19.3,13.9,30.09,SSW,211,0.0,0.0,79,0.00,,,0.00,Wunderground v.1.15,2013-03-22 07:19:00,
2013-03-22 03:24:00,19.3,13.9,30.09,SSW,211,0.0,0.0,79,0.00,,,0.00,Wunderground v.1.15,2013-03-22 07:24:00,
2013-03-22 03:30:00,19.3,14.1,30.09,SSW,211,0.0,0.0,80,0.00,,,0.00,Wunderground v.1.15,2013-03-22 07:30:00,
2013-03-22 03:36:00,19.3,13.9,30.09,SSW,211,0.0,0.0,79,0.00,,,0.00,Wunderground v.1.15,2013-03-22 07:36:00,
2013-03-22 03:43:00,18.9,13.7,30.09,SSW,211,0.0,0.0,80,0.00,,,0.00,Wunderground v.1.15,2013-03-22 07:43:00,
2013-03-22 03:48:00,18.5,13.6,30.09,SSW,211,0.0,0.0,81,0.00,,,0.00,Wunderground v.1.15,2013-03-22 07:48:00,
2013-03-22 03:54:00,18.2,13.6,30.09,SSW,211,0.0,0.0,82,0.00,,,0.00,Wunderground v.1.15,2013-03-22 07:54:00,
2013-03-22 03:59:00,18.4,14.1,30.10,SSW,212,0.0,0.0,83,0.00,,,0.00,Wunderground v.1.15,2013-03-22 07:59:00,
2013-03-22 04:05:00,18.7,14.1,30.09,SSW,211,0.0,0.0,82,0.00,,,0.00,Wunderground v.1.15,2013-03-22 08:05:00,
2013-03-22 04:11:00,19.2,14.6,30.10,SSW,212,0.0,0.0,82,0.00,,,0.00,Wunderground v.1.15,2013-03-22 08:11:00,
2013-03-22 04:17:00,19.4,14.2,30.10,SSW,211,0.0,0.0,80,0.00,,,0.00,Wunderground v.1.15,2013-03-22 08:17:00,
2013-03-22 04:23:00,19.2,14.0,30.10,SSW,211,0.0,0.0,80,0.00,,,0.00,Wunderground v.1.15,2013-03-22 08:23:00,
2013-03-22 04:28:00,19.2,14.0,30.09,SSW,211,0.0,0.0,80,0.00,,,0.00,Wunderground v.1.15,2013-03-22 08:28:00,
2013-03-22 04:34:00,19.2,14.3,30.10,SSW,211,0.0,0.0,81,0.00,,,0.00,Wunderground v.1.15,2013-03-22 08:34:00,
2013-03-22 04:39:00,19.6,14.4,30.10,West,276,0.0,0.0,80,0.00,,,0.00,Wunderground v.1.15,2013-03-22 08:39:00,
2013-03-22 04:45:00,19.7,14.5,30.10,WSW,257,0.0,1.0,80,0.00,,,0.00,Wunderground v.1.15,2013-03-22 08:45:00,
2013-03-22 04:50:00,19.8,14.6,30.10,West,278,0.0,0.0,80,0.00,,,0.00,Wunderground v.1.15,2013-03-22 08:50:00,
2013-03-22 04:56:00,19.8,14.3,30.10,West,265,0.0,0.0,79,0.00,,,0.00,Wunderground v.1.15,2013-03-22 08:56:00,
2013-03-22 05:02:00,19.8,14.3,30.10,WSW,250,0.0,0.0,79,0.00,,,0.00,Wunderground v.1.15,2013-03-22 09:02:00,
2013-03-22 05:08:00,19.7,14.2,30.10,WSW,250,0.0,0.0,79,0.00,,,0.00,Wunderground v.1.15,2013-03-22 09:08:00,
2013-03-22 05:14:00,19.3,13.9,30.10,WSW,250,0.0,0.0,79,0.00,,,0.00,Wunderground v.1.15,2013-03-22 09:14:00,
2013-03-22 05:19:00,18.9,13.7,30.10,WSW,250,0.0,0.0,80,0.00,,,0.00,Wunderground v.1.15,2013-03-22 09:19:00,
2013-03-22 05:25:00,18.5,13.6,30.10,WSW,250,0.0,0.0,81,0.00,,,0.00,Wunderground v.1.15,2013-03-22 09:25:00,
2013-03-22 05:31:00,18.3,13.4,30.10,WSW,250,0.0,0.0,81,0.00,,,0.00,Wunderground v.1.15,2013-03-22 09:31:00,
2013-03-22 05:37:00,17.9,13.3,30.10,WSW,250,0.0,0.0,82,0.00,,,0.00,Wunderground v.1.15,2013-03-22 09:37:00,
2013-03-22 05:43:00,17.4,12.8,30.10,WSW,250,0.0,0.0,82,0.00,,,0.00,Wunderground v.1.15,2013-03-22 09:43:00,
2013-03-22 05:49:00,16.9,12.6,30.10,WSW,250,0.0,0.0,83,0.00,,,0.00,Wunderground v.1.15,2013-03-22 09:49:00,
2013-03-22 05:55:00,16.7,13.2,30.10,WSW,250,0.0,0.0,86,0.00,,,0.00,Wunderground v.1.15,2013-03-22 09:55:00,
2013-03-22 06:00:00,16.8,13.3,30.10,SW,226,0.0,1.0,86,0.00,,,0.00,Wunderground v.1.15,2013-03-22 10:00:00,
2013-03-22 06:06:00,17.5,14.0,30.11,SW,226,0.0,1.0,86,0.00,,,0.00,Wunderground v.1.15,2013-03-22 10:06:00,
2013-03-22 06:12:00,17.8,13.8,30.11,SW,226,0.0,0.0,84,0.00,,,0.00,Wunderground v.1.15,2013-03-22 10:12:00,
2013-03-22 06:17:00,18.2,14.2,30.11,WSW,245,0.0,0.0,84,0.00,,,0.00,Wunderground v.1.15,2013-03-22 10:17:00,
2013-03-22 06:23:00,18.3,13.7,30.11,WSW,244,0.0,0.0,82,0.00,,,0.00,Wunderground v.1.15,2013-03-22 10:23:00,
2013-03-22 06:29:00,18.1,13.8,30.11,WSW,245,0.0,0.0,83,0.00,,,0.00,Wunderground v.1.15,2013-03-22 10:29:00,
2013-03-22 06:35:00,17.9,13.6,30.11,WSW,245,0.0,0.0,83,0.00,,,0.00,Wunderground v.1.15,2013-03-22 10:35:00,
2013-03-22 06:40:00,17.8,13.8,30.11,WSW,244,0.0,0.0,84,0.00,,,0.00,Wunderground v.1.15,2013-03-22 10:40:00,
2013-03-22 06:45:00,17.6,13.6,30.11,WSW,245,0.0,0.0,84,0.00,,,0.00,Wunderground v.1.15,2013-03-22 10:45:00,
2013-03-22 06:51:00,17.4,13.7,30.12,WSW,244,0.0,0.0,85,0.00,,,0.00,Wunderground v.1.15,2013-03-22 10:51:00,
2013-03-22 06:57:00,17.1,13.4,30.12,WSW,245,0.0,0.0,85,0.00,,,0.00,Wunderground v.1.15,2013-03-22 10:57:00,
2013-03-22 07:02:00,17.3,13.8,30.12,WSW,245,0.0,0.0,86,0.00,,,0.00,Wunderground v.1.15,2013-03-22 11:02:00,
2013-03-22 07:07:00,17.5,13.8,30.12,WSW,245,0.0,0.0,85,0.00,,,0.00,Wunderground v.1.15,2013-03-22 11:07:00,
2013-03-22 07:13:00,17.5,13.8,30.12,SW,228,0.0,0.0,85,0.00,,,0.00,Wunderground v.1.15,2013-03-22 11:13:00,
2013-03-22 07:18:00,17.5,13.8,30.12,SSW,209,0.0,0.0,85,0.00,,,0.00,Wunderground v.1.15,2013-03-22 11:18:00,
2013-03-22 07:24:00,17.3,13.6,30.12,SSW,210,0.0,0.0,85,0.00,,,0.00,Wunderground v.1.15,2013-03-22 11:24:00,
2013-03-22 07:29:00,17.3,13.8,30.13,SSW,209,0.0,0.0,86,0.00,,,0.00,Wunderground v.1.15,2013-03-22 11:29:00,
2013-03-22 07:34:00,17.3,13.8,30.13,SSW,210,0.0,0.0,86,0.00,,,0.00,Wunderground v.1.15,2013-03-22 11:34:00,
2013-03-22 07:40:00,17.2,13.7,30.13,SSW,210,0.0,0.0,86,0.00,,,0.00,Wunderground v.1.15,2013-03-22 11:40:00,
2013-03-22 07:45:00,17.1,13.9,30.13,SSW,209,0.0,0.0,87,0.00,,,0.00,Wunderground v.1.15,2013-03-22 11:45:00,
2013-03-22 07:51:00,17.5,14.3,30.13,SSW,192,0.0,0.0,87,0.00,,,0.00,Wunderground v.1.15,2013-03-22 11:51:00,
2013-03-22 07:57:00,18.1,14.6,30.13,South,191,0.0,0.0,86,0.00,,,0.00,Wunderground v.1.15,2013-03-22 11:57:00,
2013-03-22 08:02:00,18.9,15.1,30.13,SSW,192,0.0,0.0,85,0.00,,,0.00,Wunderground v.1.15,2013-03-22 12:02:00,
2013-03-22 08:07:00,19.8,15.7,30.13,South,191,0.0,0.0,84,0.00,,,0.00,Wunderground v.1.15,2013-03-22 12:07:00,
2013-03-22 08:13:00,20.6,16.0,30.14,South,191,0.0,0.0,82,0.00,,,0.00,Wunderground v.1.15,2013-03-22 12:13:00,
2013-03-22 08:19:00,21.2,16.3,30.13,SSW,192,0.0,0.0,81,0.00,,,0.00,Wunderground v.1.15,2013-03-22 12:19:00,
2013-03-22 08:25:00,22.4,17.7,30.14,SSW,192,0.0,0.0,82,0.00,,,0.00,Wunderground v.1.15,2013-03-22 12:25:00,
2013-03-22 08:31:00,24.1,18.8,30.14,SSW,192,0.0,0.0,80,0.00,,,0.00,Wunderground v.1.15,2013-03-22 12:31:00,
2013-03-22 08:36:00,24.8,18.6,30.14,SE,142,0.0,0.0,77,0.00,,,0.00,Wunderground v.1.15,2013-03-22 12:36:00,
2013-03-22 08:42:00,25.3,19.1,30.14,SSE,153,0.0,0.0,77,0.00,,,0.00,Wunderground v.1.15,2013-03-22 12:42:00,
2013-03-22 08:47:00,25.9,18.4,30.14,SSE,153,0.0,0.0,73,0.00,,,0.00,Wunderground v.1.15,2013-03-22 12:47:00,
2013-03-22 08:53:00,26.9,18.7,30.15,SE,129,0.0,0.0,71,0.00,,,0.00,Wunderground v.1.15,2013-03-22 12:53:00,
2013-03-22 08:59:00,27.8,19.3,30.14,SE,129,0.0,0.0,70,0.00,,,0.00,Wunderground v.1.15,2013-03-22 12:59:00,
2013-03-22 09:04:00,29.2,19.6,30.15,SE,128,0.0,0.0,67,0.00,,,0.00,Wunderground v.1.15,2013-03-22 13:04:00,
2013-03-22 09:10:00,30.6,20.6,30.15,SE,128,0.0,0.0,66,0.00,,,0.00,Wunderground v.1.15,2013-03-22 13:10:00,
2013-03-22 09:15:00,31.5,19.6,30.15,SSE,151,0.0,0.0,61,0.00,,,0.00,Wunderground v.1.15,2013-03-22 13:15:00,
2013-03-22 09:21:00,32.2,20.2,30.15,SE,129,0.0,0.0,61,0.00,,,0.00,Wunderground v.1.15,2013-03-22 13:21:00,
2013-03-22 09:27:00,32.2,20.6,30.15,SSE,150,0.0,1.0,62,0.00,,,0.00,Wunderground v.1.15,2013-03-22 13:27:00,
2013-03-22 09:33:00,32.0,21.6,30.15,SE,136,1.0,1.0,65,0.00,,,0.00,Wunderground v.1.15,2013-03-22 13:33:00,
2013-03-22 09:38:00,32.1,20.9,30.15,ESE,121,0.0,1.0,63,0.00,,,0.00,Wunderground v.1.15,2013-03-22 13:38:00,
2013-03-22 09:44:00,32.6,21.8,30.15,SE,136,0.0,1.0,64,0.00,,,0.00,Wunderground v.1.15,2013-03-22 13:44:00,
2013-03-22 09:50:00,32.6,21.0,30.15,SE,131,1.0,1.0,62,0.00,,,0.00,Wunderground v.1.15,2013-03-22 13:50:00,
2013-03-22 09:55:00,32.4,21.6,30.15,SW,221,1.0,1.0,64,0.00,,,0.00,Wunderground v.1.15,2013-03-22 13:55:00,
2013-03-22 10:00:00,32.6,22.1,30.15,South,191,0.0,1.0,65,0.00,,,0.00,Wunderground v.1.15,2013-03-22 14:00:00,
2013-03-22 10:06:00,33.1,22.2,30.16,SSE,155,1.0,2.0,64,0.00,,,0.00,Wunderground v.1.15,2013-03-22 14:06:00,
2013-03-22 10:11:00,33.2,22.0,30.16,SSE,168,2.0,2.0,63,0.00,,,0.00,Wunderground v.1.15,2013-03-22 14:11:00,
2013-03-22 10:17:00,32.8,21.2,30.16,SSW,201,2.0,2.0,62,0.00,,,0.00,Wunderground v.1.15,2013-03-22 14:17:00,
2013-03-22 10:22:00,32.9,20.1,30.16,South,176,1.0,3.0,59,0.00,,,0.00,Wunderground v.1.15,2013-03-22 14:22:00,
2013-03-22 10:28:00,33.5,20.3,30.16,SE,139,1.0,3.0,58,0.00,,,0.00,Wunderground v.1.15,2013-03-22 14:28:00,
2013-03-22 10:34:00,33.9,17.2,30.16,SSW,204,1.0,2.0,50,0.00,,,0.00,Wunderground v.1.15,2013-03-22 14:34:00,
2013-03-22 10:39:00,34.1,16.4,30.16,WSW,240,1.0,2.0,48,0.00,,,0.00,Wunderground v.1.15,2013-03-22 14:39:00,
2013-03-22 10:45:00,34.2,18.4,30.16,SSW,193,1.0,2.0,52,0.00,,,0.00,Wunderground v.1.15,2013-03-22 14:45:00,
2013-03-22 10:51:00,34.2,17.5,30.16,SE,136,2.0,2.0,50,0.00,,,0.00,Wunderground v.1.15,2013-03-22 14:51:00,
2013-03-22 10:57:00,33.9,17.2,30.16,ESE,105,2.0,5.0,50,0.00,,,0.00,Wunderground v.1.15,2013-03-22 14:57:00,
2013-03-22 11:03:00,33.3,17.5,30.16,ESE,123,3.0,3.0,52,0.00,,,0.00,Wunderground v.1.15,2013-03-22 15:03:00,
2013-03-22 11:09:00,33.1,16.0,30.16,SSE,150,3.0,4.0,49,0.00,,,0.00,Wunderground v.1.15,2013-03-22 15:09:00,
2013-03-22 11:14:00,32.9,15.8,30.16,NNE,29,3.0,4.0,49,0.00,,,0.00,Wunderground v.1.15,2013-03-22 15:14:00,
2013-03-22 11:20:00,33.3,16.2,30.16,SE,131,2.0,2.0,49,0.00,,,0.00,Wunderground v.1.15,2013-03-22 15:20:00,
2013-03-22 11:26:00,33.4,16.3,30.15,WSW,246,2.0,3.0,49,0.00,,,0.00,Wunderground v.1.15,2013-03-22 15:26:00,
2013-03-22 11:32:00,33.5,15.9,30.15,East,81,1.0,3.0,48,0.00,,,0.00,Wunderground v.1.15,2013-03-22 15:32:00,
2013-03-22 11:37:00,34.3,17.6,30.15,SSE,150,2.0,4.0,50,0.00,,,0.00,Wunderground v.1.15,2013-03-22 15:37:00,
2013-03-22 11:43:00,33.9,15.8,30.15,ENE,60,3.0,4.0,47,0.00,,,0.00,Wunderground v.1.15,2013-03-22 15:43:00,
2013-03-22 11:48:00,33.8,16.2,30.15,SSE,150,3.0,4.0,48,0.00,,,0.00,Wunderground v.1.15,2013-03-22 15:48:00,
2013-03-22 11:54:00,34.4,16.7,30.15,ENE,74,3.0,4.0,48,0.00,,,0.00,Wunderground v.1.15,2013-03-22 15:54:00,
2013-03-22 12:00:00,33.9,15.8,30.14,NNE,27,3.0,3.0,47,0.00,,,0.00,Wunderground v.1.15,2013-03-22 16:00:00,
2013-03-22 12:06:00,34.8,17.6,30.14,ESE,115,2.0,4.0,49,0.00,,,0.00,Wunderground v.1.15,2013-03-22 16:06:00,
2013-03-22 12:12:00,35.2,18.4,30.14,SSW,198,3.0,4.0,50,0.00,,,0.00,Wunderground v.1.15,2013-03-22 16:12:00,
2013-03-22 12:19:00,35.5,17.7,30.14,ESE,118,2.0,4.0,48,0.00,,,0.00,Wunderground v.1.15,2013-03-22 16:19:00,
2013-03-22 12:24:00,35.9,17.6,30.13,SE,142,2.0,5.0,47,0.00,,,0.00,Wunderground v.1.15,2013-03-22 16:24:00,
2013-03-22 12:30:00,35.4,17.1,30.13,West,259,3.0,3.0,47,0.00,,,0.00,Wunderground v.1.15,2013-03-22 16:30:00,
2013-03-22 12:36:00,36.3,17.0,30.13,SE,126,2.0,4.0,45,0.00,,,0.00,Wunderground v.1.15,2013-03-22 16:36:00,
2013-03-22 12:42:00,36.6,18.2,30.13,SSE,153,2.0,3.0,47,0.00,,,0.00,Wunderground v.1.15,2013-03-22 16:42:00,
2013-03-22 12:47:00,36.7,18.3,30.13,NNE,27,2.0,3.0,47,0.00,,,0.00,Wunderground v.1.15,2013-03-22 16:47:00,
2013-03-22 12:52:00,36.9,17.0,30.12,ENE,58,1.0,2.0,44,0.00,,,0.00,Wunderground v.1.15,2013-03-22 16:52:00,
2013-03-22 12:57:00,37.1,17.7,30.12,ESE,105,2.0,5.0,45,0.00,,,0.00,Wunderground v.1.15,2013-03-22 16:57:00,
2013-03-22 13:03:00,36.5,17.1,30.12,SE,146,4.0,4.0,45,0.00,,,0.00,Wunderground v.1.15,2013-03-22 17:03:00,
2013-03-22 13:09:00,36.4,17.1,30.11,ESE,116,3.0,4.0,45,0.00,,,0.00,Wunderground v.1.15,2013-03-22 17:09:00,
2013-03-22 13:14:00,37.3,17.9,30.11,SSW,205,3.0,3.0,45,0.00,,,0.00,Wunderground v.1.15,2013-03-22 17:14:00,
2013-03-22 13:19:00,37.5,17.0,30.11,East,84,2.0,3.0,43,0.00,,,0.00,Wunderground v.1.15,2013-03-22 17:19:00,
2013-03-22 13:25:00,37.8,18.3,30.12,WNW,300,2.0,3.0,45,0.00,,,0.00,Wunderground v.1.15,2013-03-22 17:25:00,
2013-03-22 13:31:00,37.7,18.2,30.11,East,79,2.0,2.0,45,0.00,,,0.00,Wunderground v.1.15,2013-03-22 17:31:00,
2013-03-22 13:37:00,38.7,19.7,30.11,WNW,301,1.0,3.0,46,0.00,,,0.00,Wunderground v.1.15,2013-03-22 17:37:00,
2013-03-22 13:43:00,39.0,19.4,30.11,SE,144,2.0,5.0,45,0.00,,,0.00,Wunderground v.1.15,2013-03-22 17:43:00,
2013-03-22 13:48:00,39.0,17.8,30.11,ENE,72,3.0,5.0,42,0.00,,,0.00,Wunderground v.1.15,2013-03-22 17:48:00,
2013-03-22 13:54:00,38.8,18.7,30.11,SSE,150,2.0,3.0,44,0.00,,,0.00,Wunderground v.1.15,2013-03-22 17:54:00,
2013-03-22 14:00:00,39.8,19.6,30.11,SW,228,2.0,2.0,44,0.00,,,0.00,Wunderground v.1.15,2013-03-22 18:00:00,
2013-03-22 14:06:00,40.1,19.9,30.10,SSW,204,2.0,4.0,44,0.00,,,0.00,Wunderground v.1.15,2013-03-22 18:06:00,
2013-03-22 14:11:00,40.5,18.0,30.10,SSE,167,2.0,2.0,40,0.00,,,0.00,Wunderground v.1.15,2013-03-22 18:11:00,
2013-03-22 14:17:00,40.9,17.2,30.10,ESE,108,1.0,2.0,38,0.00,,,0.00,Wunderground v.1.15,2013-03-22 18:17:00,
2013-03-22 14:22:00,41.6,21.3,30.10,WSW,243,0.0,3.0,44,0.00,,,0.00,Wunderground v.1.15,2013-03-22 18:22:00,
2013-03-22 14:28:00,41.1,18.6,30.10,West,277,2.0,4.0,40,0.00,,,0.00,Wunderground v.1.15,2013-03-22 18:28:00,
2013-03-22 14:34:00,40.3,16.7,30.09,NW,315,2.0,3.0,38,0.00,,,0.00,Wunderground v.1.15,2013-03-22 18:34:00,
2013-03-22 14:39:00,40.0,17.6,30.09,SW,235,1.0,3.0,40,0.00,,,0.00,Wunderground v.1.15,2013-03-22 18:39:00,
2013-03-22 14:44:00,40.6,19.3,30.09,WSW,249,1.0,3.0,42,0.00,,,0.00,Wunderground v.1.15,2013-03-22 18:44:00,
2013-03-22 14:50:00,40.7,18.8,30.09,North,360,2.0,2.0,41,0.00,,,0.00,Wunderground v.1.15,2013-03-22 18:50:00,
2013-03-22 14:56:00,40.3,18.4,30.08,NE,41,2.0,4.0,41,0.00,,,0.00,Wunderground v.1.15,2013-03-22 18:56:00,
2013-03-22 15:01:00,40.0,17.6,30.08,ENE,75,4.0,4.0,40,0.00,,,0.00,Wunderground v.1.15,2013-03-22 19:01:00,
2013-03-22 15:07:00,40.5,17.5,30.08,SE,125,3.0,4.0,39,0.00,,,0.00,Wunderground v.1.15,2013-03-22 19:07:00,
2013-03-22 15:12:00,41.5,18.9,30.08,West,278,1.0,2.0,40,0.00,,,0.00,Wunderground v.1.15,2013-03-22 19:12:00,
2013-03-22 15:19:00,41.6,18.4,30.08,West,263,2.0,7.0,39,0.00,,,0.00,Wunderground v.1.15,2013-03-22 19:19:00,
2013-03-22 15:25:00,41.4,18.9,30.08,NW,319,2.0,4.0,40,0.00,,,0.00,Wunderground v.1.15,2013-03-22 19:25:00,
2013-03-22 15:30:00,41.5,18.4,30.08,NW,306,2.0,2.0,39,0.00,,,0.00,Wunderground v.1.15,2013-03-22 19:30:00,
2013-03-22 15:36:00,42.0,19.4,30.07,ESE,108,1.0,2.0,40,0.00,,,0.00,Wunderground v.1.15,2013-03-22 19:36:00,
2013-03-22 15:41:00,42.7,19.4,30.07,WNW,302,1.0,4.0,39,0.00,,,0.00,Wunderground v.1.15,2013-03-22 19:41:00,
2013-03-22 15:46:00,43.4,20.7,30.07,WSW,246,2.0,4.0,40,0.00,,,0.00,Wunderground v.1.15,2013-03-22 19:46:00,
2013-03-22 15:52:00,43.4,20.1,30.07,SSE,153,2.0,2.0,39,0.00,,,0.00,Wunderground v.1.15,2013-03-22 19:52:00,
2013-03-22 15:58:00,44.3,19.0,30.06,SE,124,1.0,2.0,36,0.00,,,0.00,Wunderground v.1.15,2013-03-22 19:58:00,
2013-03-22 16:03:00,43.6,19.0,30.06,ESE,116,2.0,5.0,37,0.00,,,0.00,Wunderground v.1.15,2013-03-22 20:03:00,
2013-03-22 16:09:00,42.6,18.7,30.06,ENE,75,3.0,6.0,38,0.00,,,0.00,Wunderground v.1.15,2013-03-22 20:09:00,
2013-03-22 16:14:00,42.9,20.8,30.06,NE,51,3.0,3.0,41,0.00,,,0.00,Wunderground v.1.15,2013-03-22 20:14:00,
2013-03-22 16:20:00,43.3,18.7,30.06,SW,221,1.0,2.0,37,0.00,,,0.00,Wunderground v.1.15,2013-03-22 20:20:00,
2013-03-22 16:26:00,43.5,19.5,30.06,NW,309,2.0,5.0,38,0.00,,,0.00,Wunderground v.1.15,2013-03-22 20:26:00,
2013-03-22 16:31:00,43.5,18.3,30.06,WSW,250,3.0,3.0,36,0.00,,,0.00,Wunderground v.1.15,2013-03-22 20:31:00,
2013-03-22 16:37:00,43.3,17.4,30.05,NW,307,3.0,3.0,35,0.00,,,0.00,Wunderground v.1.15,2013-03-22 20:37:00,
2013-03-22 16:42:00,43.4,18.2,30.05,NW,305,2.0,2.0,36,0.00,,,0.00,Wunderground v.1.15,2013-03-22 20:42:00,
2013-03-22 16:48:00,44.1,18.8,30.05,SSW,195,1.0,2.0,36,0.00,,,0.00,Wunderground v.1.15,2013-03-22 20:48:00,
2013-03-22 16:53:00,44.6,19.3,30.05,South,184,1.0,6.0,36,0.00,,,0.00,Wunderground v.1.15,2013-03-22 20:53:00,
2013-03-22 16:59:00,44.7,20.0,30.05,NW,305,5.0,10.0,37,0.00,,,0.00,Wunderground v.1.15,2013-03-22 20:59:00,
2013-03-22 17:04:00,44.2,18.2,30.05,NNW,330,5.0,6.0,35,0.00,,,0.00,Wunderground v.1.15,2013-03-22 21:04:00,
2013-03-22 17:10:00,44.3,19.6,30.05,West,274,2.0,2.0,37,0.00,,,0.00,Wunderground v.1.15,2013-03-22 21:10:00,
2013-03-22 17:15:00,44.7,20.6,30.05,ESE,112,1.0,2.0,38,0.00,,,0.00,Wunderground v.1.15,2013-03-22 21:15:00,
2013-03-22 17:21:00,45.1,21.0,30.05,SW,229,1.0,1.0,38,0.00,,,0.00,Wunderground v.1.15,2013-03-22 21:21:00,
2013-03-22 17:26:00,44.9,19.5,30.05,WNW,289,2.0,5.0,36,0.00,,,0.00,Wunderground v.1.15,2013-03-22 21:26:00,
2013-03-22 17:32:00,44.7,18.7,30.05,East,95,2.0,4.0,35,0.00,,,0.00,Wunderground v.1.15,2013-03-22 21:32:00,
2013-03-22 17:37:00,44.3,19.0,30.05,West,267,2.0,4.0,36,0.00,,,0.00,Wunderground v.1.15,2013-03-22 21:37:00,
2013-03-22 17:43:00,44.5,19.8,30.05,WNW,291,1.0,2.0,37,0.00,,,0.00,Wunderground v.1.15,2013-03-22 21:43:00,
2013-03-22 17:49:00,44.2,20.2,30.05,North,349,2.0,4.0,38,0.00,,,0.00,Wunderground v.1.15,2013-03-22 21:49:00,
2013-03-22 17:55:00,44.0,19.4,30.05,West,280,2.0,4.0,37,0.00,,,0.00,Wunderground v.1.15,2013-03-22 21:55:00,
2013-03-22 18:00:00,43.9,19.9,30.05,WNW,294,3.0,3.0,38,0.00,,,0.00,Wunderground v.1.15,2013-03-22 22:00:00,
2013-03-22 18:06:00,43.6,20.2,30.05,WNW,291,3.0,5.0,39,0.00,,,0.00,Wunderground v.1.15,2013-03-22 22:06:00,
2013-03-22 18:12:00,43.4,19.5,30.05,NW,326,3.0,4.0,38,0.00,,,0.00,Wunderground v.1.15,2013-03-22 22:12:00,
2013-03-22 18:17:00,43.1,19.8,30.05,NNW,340,3.0,4.0,39,0.00,,,0.00,Wunderground v.1.15,2013-03-22 22:17:00,
2013-03-22 18:22:00,42.9,20.2,30.05,WNW,298,2.0,3.0,40,0.00,,,0.00,Wunderground v.1.15,2013-03-22 22:22:00,
2013-03-22 18:28:00,42.5,19.3,30.05,WNW,288,3.0,5.0,39,0.00,,,0.00,Wunderground v.1.15,2013-03-22 22:28:00,
2013-03-22 18:34:00,42.3,20.8,30.05,WNW,283,3.0,3.0,42,0.00,,,0.00,Wunderground v.1.15,2013-03-22 22:34:00,
2013-03-22 18:39:00,42.2,20.7,30.05,West,272,2.0,4.0,42,0.00,,,0.00,Wunderground v.1.15,2013-03-22 22:39:00,
2013-03-22 18:44:00,42.0,20.5,30.05,WNW,296,2.0,3.0,42,0.00,,,0.00,Wunderground v.1.15,2013-03-22 22:44:00,
2013-03-22 18:50:00,41.9,21.0,30.05,WNW,283,3.0,3.0,43,0.00,,,0.00,Wunderground v.1.15,2013-03-22 22:50:00,
2013-03-22 18:56:00,41.9,22.1,30.05,WNW,297,2.0,3.0,45,0.00,,,0.00,Wunderground v.1.15,2013-03-22 22:56:00,
2013-03-22 19:02:00,41.8,22.0,30.05,WSW,257,2.0,3.0,45,0.00,,,0.00,Wunderground v.1.15,2013-03-22 23:02:00,
2013-03-22 19:08:00,41.7,21.4,30.05,WNW,289,2.0,3.0,44,0.00,,,0.00,Wunderground v.1.15,2013-03-22 23:08:00,
2013-03-22 19:14:00,41.6,20.7,30.05,WNW,296,2.0,4.0,43,0.00,,,0.00,Wunderground v.1.15,2013-03-22 23:14:00,
2013-03-22 19:19:00,41.5,22.2,30.06,WNW,287,2.0,4.0,46,0.00,,,0.00,Wunderground v.1.15,2013-03-22 23:19:00,
2013-03-22 19:24:00,41.5,22.2,30.06,West,277,2.0,3.0,46,0.00,,,0.00,Wunderground v.1.15,2013-03-22 23:24:00,
2013-03-22 19:30:00,41.3,21.0,30.06,West,279,2.0,2.0,44,0.00,,,0.00,Wunderground v.1.15,2013-03-22 23:30:00,
2013-03-22 19:35:00,41.2,20.4,30.06,WNW,289,2.0,3.0,43,0.00,,,0.00,Wunderground v.1.15,2013-03-22 23:35:00,
2013-03-22 19:40:00,41.1,21.3,30.06,West,278,2.0,2.0,45,0.00,,,0.00,Wunderground v.1.15,2013-03-22 23:40:00,
2013-03-22 19:46:00,40.9,21.7,30.07,WNW,290,1.0,2.0,46,0.00,,,0.00,Wunderground v.1.15,2013-03-22 23:46:00,
2013-03-22 19:51:00,40.7,21.5,30.06,WNW,295,1.0,1.0,46,0.00,,,0.00,Wunderground v.1.15,2013-03-22 23:51:00,
2013-03-22 19:57:00,40.7,22.0,30.06,WNW,285,1.0,1.0,47,0.00,,,0.00,Wunderground v.1.15,2013-03-22 23:57:00,
2013-03-22 20:02:00,40.6,21.9,30.06,NW,323,0.0,1.0,47,0.00,,,0.00,Wunderground v.1.15,2013-03-23 00:02:00,
2013-03-22 20:08:00,40.5,21.8,30.06,WNW,284,0.0,1.0,47,0.00,,,0.00,Wunderground v.1.15,2013-03-23 00:08:00,
2013-03-22 20:14:00,40.4,22.7,30.07,West,280,0.0,1.0,49,0.00,,,0.00,Wunderground v.1.15,2013-03-23 00:14:00,
2013-03-22 20:19:00,40.3,22.6,30.06,West,280,0.0,1.0,49,0.00,,,0.00,Wunderground v.1.15,2013-03-23 00:19:00,
2013-03-22 20:25:00,40.2,23.0,30.07,West,280,0.0,0.0,50,0.00,,,0.00,Wunderground v.1.15,2013-03-23 00:25:00,
2013-03-22 20:30:00,40.1,23.9,30.07,West,260,0.0,0.0,52,0.00,,,0.00,Wunderground v.1.15,2013-03-23 00:30:00,
2013-03-22 20:36:00,39.9,23.7,30.07,West,260,0.0,0.0,52,0.00,,,0.00,Wunderground v.1.15,2013-03-23 00:36:00,
2013-03-22 20:41:00,39.8,24.5,30.07,West,259,0.0,0.0,54,0.00,,,0.00,Wunderground v.1.15,2013-03-23 00:41:00,
2013-03-22 20:47:00,39.6,23.9,30.07,West,259,0.0,0.0,53,0.00,,,0.00,Wunderground v.1.15,2013-03-23 00:47:00,
2013-03-22 20:53:00,39.5,23.8,30.07,West,260,0.0,0.0,53,0.00,,,0.00,Wunderground v.1.15,2013-03-23 00:53:00,
2013-03-22 20:59:00,39.6,23.4,30.07,West,260,0.0,0.0,52,0.00,,,0.00,Wunderground v.1.15,2013-03-23 00:59:00,
2013-03-22 21:04:00,39.5,24.2,30.07,West,259,0.0,0.0,54,0.00,,,0.00,Wunderground v.1.15,2013-03-23 01:04:00,
2013-03-22 21:10:00,39.3,25.7,30.07,West,259,0.0,0.0,58,0.00,,,0.00,Wunderground v.1.15,2013-03-23 01:10:00,
2013-03-22 21:15:00,39.1,24.3,30.08,West,259,0.0,0.0,55,0.00,,,0.00,Wunderground v.1.15,2013-03-23 01:15:00,
2013-03-22 21:21:00,39.0,24.2,30.08,West,266,0.0,0.0,55,0.00,,,0.00,Wunderground v.1.15,2013-03-23 01:21:00,
2013-03-22 21:27:00,39.1,24.3,30.08,West,266,0.0,0.0,55,0.00,,,0.00,Wunderground v.1.15,2013-03-23 01:27:00,
2013-03-22 21:32:00,39.1,23.4,30.08,West,266,0.0,0.0,53,0.00,,,0.00,Wunderground v.1.15,2013-03-23 01:32:00,
2013-03-22 21:38:00,39.1,23.8,30.07,West,266,0.0,0.0,54,0.00,,,0.00,Wunderground v.1.15,2013-03-23 01:38:00,
2013-03-22 21:44:00,39.0,25.5,30.08,West,266,0.0,0.0,58,0.00,,,0.00,Wunderground v.1.15,2013-03-23 01:44:00,
2013-03-22 21:49:00,38.9,25.8,30.08,West,265,0.0,0.0,59,0.00,,,0.00,Wunderground v.1.15,2013-03-23 01:49:00,
2013-03-22 21:55:00,38.7,24.8,30.08,West,265,0.0,0.0,57,0.00,,,0.00,Wunderground v.1.15,2013-03-23 01:55:00,
2013-03-22 22:00:00,38.7,24.3,30.08,West,265,0.0,0.0,56,0.00,,,0.00,Wunderground v.1.15,2013-03-23 02:00:00,
2013-03-22 22:06:00,38.7,26.4,30.08,West,265,0.0,0.0,61,0.00,,,0.00,Wunderground v.1.15,2013-03-23 02:06:00,
2013-03-22 22:11:00,38.6,27.5,30.08,West,265,0.0,0.0,64,0.00,,,0.00,Wunderground v.1.15,2013-03-23 02:11:00,
2013-03-22 22:17:00,38.4,27.7,30.09,West,265,0.0,0.0,65,0.00,,,0.00,Wunderground v.1.15,2013-03-23 02:17:00,
2013-03-22 22:23:00,38.1,25.0,30.08,West,265,0.0,0.0,59,0.00,,,0.00,Wunderground v.1.15,2013-03-23 02:23:00,
2013-03-22 22:28:00,37.9,24.4,30.08,West,266,0.0,0.0,58,0.00,,,0.00,Wunderground v.1.15,2013-03-23 02:28:00,
2013-03-22 22:34:00,38.0,24.9,30.08,SSW,192,0.0,0.0,59,0.00,,,0.00,Wunderground v.1.15,2013-03-23 02:34:00,
2013-03-22 22:39:00,38.0,25.3,30.08,SSW,193,0.0,0.0,60,0.00,,,0.00,Wunderground v.1.15,2013-03-23 02:39:00,
2013-03-22 22:45:00,37.9,24.8,30.08,SSW,193,0.0,0.0,59,0.00,,,0.00,Wunderground v.1.15,2013-03-23 02:45:00,
2013-03-22 22:51:00,37.9,24.8,30.08,South,186,0.0,0.0,59,0.00,,,0.00,Wunderground v.1.15,2013-03-23 02:51:00,
2013-03-22 22:57:00,37.9,24.8,30.08,South,186,0.0,0.0,59,0.00,,,0.00,Wunderground v.1.15,2013-03-23 02:57:00,
2013-03-22 23:02:00,37.7,23.8,30.08,South,186,0.0,0.0,57,0.00,,,0.00,Wunderground v.1.15,2013-03-23 03:02:00,
2013-03-22 23:08:00,37.8,23.5,30.08,South,186,0.0,0.0,56,0.00,,,0.00,Wunderground v.1.15,2013-03-23 03:08:00,
2013-03-22 23:14:00,37.9,24.0,30.08,South,186,0.0,0.0,57,0.00,,,0.00,Wunderground v.1.15,2013-03-23 03:14:00,
2013-03-22 23:19:00,37.9,26.8,30.08,South,186,0.0,0.0,64,0.00,,,0.00,Wunderground v.1.15,2013-03-23 03:19:00,
2013-03-22 23:25:00,37.7,26.2,30.08,South,186,0.0,0.0,63,0.00,,,0.00,Wunderground v.1.15,2013-03-23 03:25:00,
2013-03-22 23:31:00,37.6,25.7,30.08,South,186,0.0,0.0,62,0.00,,,0.00,Wunderground v.1.15,2013-03-23 03:31:00,
2013-03-22 23:36:00,37.5,26.0,30.08,South,186,0.0,0.0,63,0.00,,,0.00,Wunderground v.1.15,2013-03-23 03:36:00,
2013-03-22 23:42:00,37.3,25.5,30.08,South,186,0.0,0.0,62,0.00,,,0.00,Wunderground v.1.15,2013-03-23 03:42:00,
2013-03-22 23:47:00,37.3,25.5,30.08,South,186,0.0,0.0,62,0.00,,,0.00,Wunderground v.1.15,2013-03-23 03:47:00,
2013-03-22 23:53:00,37.3,25.1,30.08,South,186,0.0,0.0,61,0.00,,,0.00,Wunderground v.1.15,2013-03-23 03:53:00,
2013-03-22 23:58:00,37.4,25.6,30.08,WSW,240,0.0,0.0,62,0.00,,,0.00,Wunderground v.1.15,2013-03-23 03:58:00,